This is the latest recevied weather packets stored in our database for station/object N3AVN. If no packets are shown the sender has not sent any weather packets the latest 1 day(s).
| Time | Temp. | Humidity | Pressure | Rain* | Wind** | Luminosity | Snow |
|---|---|---|---|---|---|---|---|
| 1778034707 | 18.33° C | 66% | 1008.1 hPa | 0 mm | - | 0 W/m² | - |
| 1778034404 | 18.33° C | 66% | 1008.1 hPa | 0 mm | - | 0 W/m² | - |
| 1778034101 | 17.78° C | 66% | 1008.1 hPa | 0 mm | - | 0 W/m² | - |
| 1778033496 | 18.33° C | 66% | 1008 hPa | 0 mm | - | 0 W/m² | - |
| 1778033193 | 17.78° C | 66% | 1008.2 hPa | 0 mm | - | 0 W/m² | - |
| 1778032588 | 18.33° C | 65% | 1008.3 hPa | 0 mm | - | 0 W/m² | - |
| 1778032285 | 17.78° C | 66% | 1008.1 hPa | 0 mm | - | 0 W/m² | - |
| 1778031983 | 18.33° C | 65% | 1007.9 hPa | 0 mm | - | 0 W/m² | - |
| 1778031678 | 18.33° C | 65% | 1008.1 hPa | 0 mm | - | 0 W/m² | - |
| 1778031377 | 18.33° C | 65% | 1008 hPa | 0 mm | - | 0 W/m² | - |
| 1778031073 | 18.33° C | 65% | 1007.7 hPa | 0 mm | - | 0 W/m² | - |
| 1778030769 | 18.33° C | 65% | 1008 hPa | 0 mm | - | 0 W/m² | - |
| 1778030466 | 18.33° C | 64% | 1007.7 hPa | 0 mm | - | 0 W/m² | - |
| 1778029559 | 18.89° C | 64% | 1007.7 hPa | 0 mm | - | 0 W/m² | - |
| 1778029256 | 18.89° C | 64% | 1007.6 hPa | 0 mm | - | 0 W/m² | - |
| 1778028953 | 18.89° C | 64% | 1007.6 hPa | 0 mm | - | 0 W/m² | - |
| 1778028346 | 18.89° C | 63% | 1007.5 hPa | 0 mm | - | 0 W/m² | - |
| 1778028043 | 19.44° C | 63% | 1007.2 hPa | 0 mm | - | 0 W/m² | - |
| 1778027739 | 19.44° C | 63% | 1007.2 hPa | 0 mm | - | 0 W/m² | - |
| 1778026524 | 20° C | 62% | 1006.9 hPa | 0 mm | - | 0 W/m² | - |
| 1778026221 | 20° C | 62% | 1006.8 hPa | 0 mm | - | 0 W/m² | - |
| 1778024708 | 20.56° C | 61% | 1006.3 hPa | 0 mm | - | 0 W/m² | - |
| 1778023799 | 20.56° C | 60% | 1006.3 hPa | 0 mm | - | 6 W/m² | - |
| 1778023194 | 20.56° C | 59% | 1006 hPa | 0 mm | - | 11 W/m² | - |
| 1778022287 | 21.11° C | 58% | 1006 hPa | 0 mm | - | 21 W/m² | - |
* Rain latest hour (hover to see other rain measurements)
** Current wind speed in m/s (hover to see current wind gust speed)